Flag for Liechtenstein Weather past 2 weeks in Vaduz, Liechtenstein

Now
61 °F

Cool.


Feels Like: 61 °F
Forecast: 56 / 71 °F
Wind: 2 mph from South

Location: Vaduz

Current Time: Sep 3, 2015 at 11:23:03 AM

Latest Report: Sep 3, 2015 at 10:00 AM


Visibility: N/A

Pressure: 29.96 "Hg

Humidity: 84%

Dew point: 56 °F

Location of VaduzLocation

Historic Weather in Vaduz — Graph

°F

Vaduz temperature yesterday

Maximum temperature yesterday: 67 °F (at 4:00 PM)
Minimum temperature yesterday: 58 °F (at 3:00 AM)
Average temperature yesterday: 62 °F

Past Weeks' High & Low Weather Summary

 TemperatureHumidityPressure
High88 °F (Aug 30, 4:00 PM)97% (Aug 20, 2:00 AM)30.28 "Hg (Aug 20, 2:00 AM)
Low54 °F (Aug 22, 12:00 AM)26% (Aug 31, 1:00 PM)29.67 "Hg (Aug 24, 11:00 AM)
Average69 °F65%30.02 "Hg
* Reported Aug 19 10:00 AM — Sep 3 10:00 AM, Vaduz, Weather by CustomWeather, © 2015

Note: Actual official high and low records may vary slightly from our data, if they occured in-between our weather recording intervals... More about our weather records

Advertising

Vaduz weather history for previous 24 hours

 ConditionsComfort  
Time TempWeatherWind HumidityBarometerVisibility
10:00 AM
Thu, Sep 3
61 °FCool.2 mph84%29.96 "HgN/A
9:00 AM60 °FCool.1 mph86%29.96 "HgN/A
8:00 AM59 °FOvercast.No wind93%29.96 "Hg4 mi
7:00 AM58 °FCool.No wind93%29.95 "HgN/A
5:00 AM59 °FFog.5 mph91%29.96 "Hg5 mi
4:00 AM59 °FCool.2 mph92%29.96 "HgN/A
3:00 AM59 °FCool.2 mph93%29.97 "HgN/A
2:00 AM59 °FRain. Overcast.3 mph94%29.98 "Hg5 mi
1:00 AM59 °FCool.1 mph94%29.99 "HgN/A
12:00 AM60 °FCool.2 mph90%29.97 "HgN/A
10:00 PM
Wed, Sep 2
60 °FCool.1 mph93%29.99 "HgN/A
9:00 PM62 °FCool.1 mph84%29.98 "HgN/A
8:00 PM63 °FFog.1 mph76%29.97 "Hg5 mi
7:00 PM64 °FMild.1 mph72%29.97 "HgN/A
6:00 PM65 °FMild.1 mph72%29.96 "HgN/A
5:00 PM66 °FFog.5 mph66%29.95 "Hg5 mi
4:00 PM67 °FMild.8 mph66%29.94 "HgN/A
3:00 PM66 °FMild.5 mph68%29.96 "HgN/A
2:00 PM65 °FFog.3 mph69%29.97 "Hg5 mi
1:00 PM64 °FMild.2 mph75%29.99 "HgN/A
12:00 PM63 °FMild.3 mph77%30.01 "HgN/A
11:00 AM61 °FFog.3 mph84%30.02 "Hg4 mi
Weather by CustomWeather, © 2015

See weather overviewHow to use our weather pages